Tracking 25963 objects as of 12-Aug-2022
HD Live streaming from Space Station
objects crossing your sky now

LES 6

Track LES 6 now!
LES 6 is classified as:


NORAD ID: 3431
Int'l Code: 1968-081D
Perigee: 35,791.4 km
Apogee: 35,841.1 km
Inclination: 2.6 °
Period: 1,437.2 minutes
Semi major axis: 42187 km
RCS: 3.1622 m2 (large)
Launch date: September 26, 1968
Source: United States (US)
Launch site: AIR FORCE EASTERN TEST RANGE (AFETR)
aabbcc
Your satellite tracking list
Your tracking list is empty




NASA's NSSDC Master Catalog

Two Line Element Set (TLE):
1 03431U 68081D   22224.53965556 -.00000086  00000-0  00000-0 0  9995
2 03431   2.6099 305.5383 0005895  31.4719  71.6068  1.00191604106702
Source of the keplerian elements: AFSPC